contact:dominique.lefevre@mio.osupytheas.fr, maurice.libes@osupytheas.fr, didier.mallarino@osupytheas.fr
Project:EMSO http://www.emso-fr.org/EMSO-France
Depth: 2436.0 m
Title:EMSO Ligure Ouest : Data MII capteur CSTAR
DateTime,Latitude,Longitude,Instrument_Serial,Reference_Counts,Signal_Counts,Corrected_Signal_raw_counts,Calculated_Beam_c_inverse_meters,Internal_thermistor_counts
DateTime,Latitude,Longitude,Instrument_Serial,Reference_Counts,Signal_Counts,Corrected_Signal_raw_counts,Calculated_Beam_c_inverse_meters,Internal_thermistor_counts
2020-10-05T00:00:01,42.805,6.029,CST-1368DR,5926,8293,15089,0.137,551
2020-10-05T00:03:03,42.805,6.029,CST-1368DR,5926,8294,15090,0.137,551
2020-10-05T00:06:04,42.805,6.029,CST-1368DR,5926,8294,15089,0.137,551
2020-10-05T00:09:06,42.805,6.029,CST-1368DR,5926,8294,15091,0.137,551
2020-10-05T00:12:07,42.805,6.029,CST-1368DR,5926,8294,15090,0.137,551
2020-10-05T00:15:09,42.805,6.029,CST-1368DR,5926,8294,15090,0.137,551
2020-10-05T00:18:11,42.805,6.029,CST-1368DR,5926,8294,15090,0.137,550
2020-10-05T00:21:12,42.805,6.029,CST-1368DR,5926,8293,15089,0.137,551
2020-10-05T00:24:14,42.805,6.029,CST-1368DR,5926,8294,15090,0.137,551
2020-10-05T00:27:15,42.805,6.029,CST-1368DR,5926,8294,15090,0.137,550
2020-10-05T00:30:17,42.805,6.029,CST-1368DR,5926,8294,15089,0.137,551
2020-10-05T00:33:18,42.805,6.029,CST-1368DR,5926,8295,15091,0.137,551
2020-10-05T00:36:20,42.805,6.029,CST-1368DR,5926,8294,15091,0.137,551
2020-10-05T00:39:22,42.805,6.029,CST-1368DR,5926,8293,15088,0.138,551
2020-10-05T00:42:23,42.805,6.029,CST-1368DR,5926,8294,15091,0.137,551
2020-10-05T00:45:25,42.805,6.029,CST-1368DR,5926,8295,15091,0.137,551
2020-10-05T00:48:26,42.805,6.029,CST-1368DR,5926,8294,15089,0.137,551
2020-10-05T00:51:28,42.805,6.029,CST-1368DR,5926,8294,15089,0.137,551
2020-10-05T00:54:29,42.805,6.029,CST-1368DR,5926,8293,15088,0.138,551
2020-10-05T00:57:31,42.805,6.029,CST-1368DR,5926,8292,15087,0.138,551
2020-10-05T01:00:33,42.805,6.029,CST-1368DR,5926,8294,15090,0.137,551
2020-10-05T01:03:34,42.805,6.029,CST-1368DR,5926,8294,15089,0.137,551
2020-10-05T01:06:36,42.805,6.029,CST-1368DR,5926,8293,15088,0.138,551
2020-10-05T01:09:37,42.805,6.029,CST-1368DR,5926,8293,15089,0.137,551
2020-10-05T01:12:39,42.805,6.029,CST-1368DR,5926,8294,15091,0.137,551
2020-10-05T01:15:41,42.805,6.029,CST-1368DR,5926,8294,15090,0.137,551
2020-10-05T01:18:42,42.805,6.029,CST-1368DR,5926,8293,15088,0.138,551
2020-10-05T01:21:44,42.805,6.029,CST-1368DR,5926,8293,15087,0.138,551
2020-10-05T01:24:45,42.805,6.029,CST-1368DR,5926,8294,15090,0.137,551
2020-10-05T01:27:47,42.805,6.029,CST-1368DR,5926,8293,15087,0.138,551
2020-10-05T01:30:48,42.805,6.029,CST-1368DR,5926,8294,15089,0.137,551
2020-10-05T01:33:50,42.805,6.029,CST-1368DR,5926,8293,15089,0.137,551
2020-10-05T01:36:52,42.805,6.029,CST-1368DR,5926,8293,15088,0.138,551
2020-10-05T01:39:53,42.805,6.029,CST-1368DR,5926,8294,15090,0.137,551
2020-10-05T01:42:55,42.805,6.029,CST-1368DR,5926,8294,15089,0.137,551
2020-10-05T01:45:56,42.805,6.029,CST-1368DR,5926,8292,15087,0.138,551
2020-10-05T01:48:58,42.805,6.029,CST-1368DR,5926,8293,15088,0.138,551
2020-10-05T01:51:59,42.805,6.029,CST-1368DR,5926,8292,15086,0.138,551
2020-10-05T01:55:01,42.805,6.029,CST-1368DR,5926,8293,15088,0.138,551
2020-10-05T01:58:03,42.805,6.029,CST-1368DR,5926,8293,15088,0.138,551
2020-10-05T02:01:04,42.805,6.029,CST-1368DR,5926,8294,15089,0.137,551
2020-10-05T02:04:06,42.805,6.029,CST-1368DR,5926,8294,15089,0.137,551
2020-10-05T02:07:07,42.805,6.029,CST-1368DR,5926,8293,15088,0.138,551
2020-10-05T02:10:09,42.805,6.029,CST-1368DR,5926,8292,15087,0.138,551
2020-10-05T02:13:11,42.805,6.029,CST-1368DR,5926,8293,15088,0.138,551
2020-10-05T02:16:12,42.805,6.029,CST-1368DR,5926,8294,15089,0.137,551
2020-10-05T02:19:14,42.805,6.029,CST-1368DR,5926,8294,15090,0.137,551
2020-10-05T02:22:15,42.805,6.029,CST-1368DR,5926,8293,15088,0.138,551
2020-10-05T02:25:17,42.805,6.029,CST-1368DR,5926,8294,15089,0.137,551
2020-10-05T02:28:18,42.805,6.029,CST-1368DR,5926,8293,15088,0.138,551
2020-10-05T02:31:20,42.805,6.029,CST-1368DR,5926,8293,15089,0.137,551
2020-10-05T02:34:22,42.805,6.029,CST-1368DR,5926,8293,15088,0.138,551
2020-10-05T02:37:23,42.805,6.029,CST-1368DR,5926,8293,15087,0.138,551
2020-10-05T02:40:25,42.805,6.029,CST-1368DR,5926,8294,15089,0.137,551
2020-10-05T02:43:26,42.805,6.029,CST-1368DR,5925,8294,15092,0.137,551
2020-10-05T02:46:28,42.805,6.029,CST-1368DR,5925,8293,15090,0.137,551
2020-10-05T02:49:29,42.805,6.029,CST-1368DR,5925,8293,15090,0.137,551
2020-10-05T02:52:31,42.805,6.029,CST-1368DR,5925,8293,15090,0.137,551
2020-10-05T02:55:33,42.805,6.029,CST-1368DR,5926,8293,15088,0.138,551
2020-10-05T02:58:34,42.805,6.029,CST-1368DR,5926,8292,15087,0.138,550
2020-10-05T03:01:36,42.805,6.029,CST-1368DR,5926,8293,15087,0.138,551
2020-10-05T03:04:37,42.805,6.029,CST-1368DR,5926,8293,15089,0.137,551
2020-10-05T03:07:39,42.805,6.029,CST-1368DR,5925,8293,15091,0.137,550
2020-10-05T03:10:41,42.805,6.029,CST-1368DR,5925,8293,15090,0.137,551
2020-10-05T03:13:42,42.805,6.029,CST-1368DR,5925,8294,15092,0.137,551
2020-10-05T03:16:44,42.805,6.029,CST-1368DR,5925,8293,15091,0.137,551
2020-10-05T03:19:45,42.805,6.029,CST-1368DR,5925,8293,15091,0.137,551
2020-10-05T03:22:47,42.805,6.029,CST-1368DR,5925,8293,15090,0.137,551
2020-10-05T03:25:48,42.805,6.029,CST-1368DR,5926,8293,15088,0.138,551
2020-10-05T03:28:50,42.805,6.029,CST-1368DR,5926,8294,15089,0.137,551
2020-10-05T03:31:52,42.805,6.029,CST-1368DR,5925,8294,15092,0.137,551
2020-10-05T03:34:53,42.805,6.029,CST-1368DR,5925,8293,15091,0.137,551
2020-10-05T03:37:55,42.805,6.029,CST-1368DR,5925,8293,15091,0.137,551
2020-10-05T03:40:56,42.805,6.029,CST-1368DR,5925,8293,15091,0.137,551
2020-10-05T03:43:58,42.805,6.029,CST-1368DR,5925,8293,15091,0.137,551
2020-10-05T03:47:00,42.805,6.029,CST-1368DR,5925,8293,15091,0.137,551
2020-10-05T03:50:01,42.805,6.029,CST-1368DR,5925,8293,15090,0.137,551
2020-10-05T03:53:03,42.805,6.029,CST-1368DR,5925,8294,15092,0.137,551
2020-10-05T03:56:04,42.805,6.029,CST-1368DR,5925,8292,15089,0.137,551
2020-10-05T03:59:06,42.805,6.029,CST-1368DR,5925,8292,15088,0.138,551
2020-10-05T04:02:07,42.805,6.029,CST-1368DR,5925,8293,15091,0.137,551
2020-10-05T04:05:09,42.805,6.029,CST-1368DR,5925,8293,15090,0.137,551
2020-10-05T04:08:11,42.805,6.029,CST-1368DR,5925,8291,15087,0.138,551
2020-10-05T04:11:12,42.805,6.029,CST-1368DR,5925,8293,15090,0.137,551
2020-10-05T04:14:14,42.805,6.029,CST-1368DR,5925,8294,15092,0.137,551
2020-10-05T04:17:15,42.805,6.029,CST-1368DR,5925,8293,15091,0.137,551
2020-10-05T04:20:17,42.805,6.029,CST-1368DR,5925,8293,15090,0.137,551
2020-10-05T04:23:18,42.805,6.029,CST-1368DR,5925,8293,15090,0.137,551
2020-10-05T04:26:20,42.805,6.029,CST-1368DR,5925,8292,15089,0.137,551
2020-10-05T04:29:22,42.805,6.029,CST-1368DR,5925,8293,15090,0.137,551
2020-10-05T04:32:23,42.805,6.029,CST-1368DR,5925,8293,15090,0.137,551
2020-10-05T04:35:25,42.805,6.029,CST-1368DR,5925,8293,15090,0.137,551
2020-10-05T04:38:26,42.805,6.029,CST-1368DR,5925,8293,15091,0.137,551
2020-10-05T04:41:28,42.805,6.029,CST-1368DR,5925,8293,15090,0.137,551
2020-10-05T04:44:30,42.805,6.029,CST-1368DR,5925,8293,15090,0.137,551
2020-10-05T04:47:31,42.805,6.029,CST-1368DR,5925,8293,15090,0.137,551
2020-10-05T04:50:33,42.805,6.029,CST-1368DR,5925,8291,15087,0.138,551
2020-10-05T04:53:34,42.805,6.029,CST-1368DR,5925,8293,15090,0.137,551
2020-10-05T04:56:36,42.805,6.029,CST-1368DR,5925,8292,15089,0.137,551
2020-10-05T04:59:37,42.805,6.029,CST-1368DR,5925,8291,15087,0.138,551
2020-10-05T05:02:39,42.805,6.029,CST-1368DR,5925,8293,15090,0.137,551
2020-10-05T05:05:41,42.805,6.029,CST-1368DR,5925,8292,15088,0.138,551
2020-10-05T05:08:42,42.805,6.029,CST-1368DR,5925,8293,15090,0.137,551
2020-10-05T05:11:44,42.805,6.029,CST-1368DR,5925,8291,15087,0.138,551
2020-10-05T05:14:45,42.805,6.029,CST-1368DR,5925,8292,15089,0.137,551
2020-10-05T05:17:47,42.805,6.029,CST-1368DR,5925,8291,15087,0.138,551
2020-10-05T05:20:49,42.805,6.029,CST-1368DR,5925,8292,15089,0.137,551
2020-10-05T05:23:50,42.805,6.029,CST-1368DR,5925,8293,15090,0.137,551
2020-10-05T05:26:52,42.805,6.029,CST-1368DR,5925,8291,15087,0.138,551
2020-10-05T05:29:53,42.805,6.029,CST-1368DR,5925,8292,15089,0.137,551
2020-10-05T05:32:55,42.805,6.029,CST-1368DR,5925,8292,15089,0.137,551
2020-10-05T05:35:56,42.805,6.029,CST-1368DR,5925,8292,15089,0.137,551
2020-10-05T05:38:58,42.805,6.029,CST-1368DR,5925,8292,15088,0.138,551
2020-10-05T05:42:00,42.805,6.029,CST-1368DR,5925,8293,15090,0.137,551
2020-10-05T05:45:01,42.805,6.029,CST-1368DR,5925,8293,15090,0.137,551
2020-10-05T05:48:03,42.805,6.029,CST-1368DR,5925,8292,15088,0.138,551
2020-10-05T05:51:04,42.805,6.029,CST-1368DR,5925,8292,15088,0.138,550
2020-10-05T05:54:06,42.805,6.029,CST-1368DR,5925,8293,15090,0.137,551
2020-10-05T05:57:08,42.805,6.029,CST-1368DR,5925,8293,15090,0.137,551
2020-10-05T06:00:09,42.805,6.029,CST-1368DR,5925,8292,15089,0.137,551
2020-10-05T06:03:11,42.805,6.029,CST-1368DR,5925,8293,15090,0.137,551
2020-10-05T06:06:12,42.805,6.029,CST-1368DR,5925,8289,15083,0.139,551
2020-10-05T06:09:14,42.805,6.029,CST-1368DR,5925,8291,15087,0.138,551
2020-10-05T06:12:15,42.805,6.029,CST-1368DR,5925,8292,15089,0.137,551
2020-10-05T06:15:17,42.805,6.029,CST-1368DR,5925,8293,15090,0.137,551
2020-10-05T06:18:19,42.805,6.029,CST-1368DR,5925,8292,15089,0.137,551
2020-10-05T06:21:20,42.805,6.029,CST-1368DR,5925,8293,15090,0.137,551
2020-10-05T06:24:22,42.805,6.029,CST-1368DR,5925,8293,15091,0.137,551
2020-10-05T06:27:23,42.805,6.029,CST-1368DR,5925,8293,15090,0.137,551
2020-10-05T06:30:25,42.805,6.029,CST-1368DR,5925,8293,15090,0.137,551
2020-10-05T06:33:27,42.805,6.029,CST-1368DR,5925,8293,15090,0.137,551
2020-10-05T06:36:28,42.805,6.029,CST-1368DR,5925,8293,15090,0.137,551
2020-10-05T06:39:30,42.805,6.029,CST-1368DR,5925,8292,15089,0.137,551
2020-10-05T06:42:31,42.805,6.029,CST-1368DR,5925,8293,15090,0.137,551
2020-10-05T06:45:33,42.805,6.029,CST-1368DR,5925,8293,15090,0.137,551
2020-10-05T06:48:34,42.805,6.029,CST-1368DR,5925,8293,15090,0.137,551
2020-10-05T06:51:36,42.805,6.029,CST-1368DR,5925,8293,15090,0.137,551
2020-10-05T06:54:38,42.805,6.029,CST-1368DR,5925,8293,15091,0.137,551
2020-10-05T06:57:39,42.805,6.029,CST-1368DR,5924,8293,15092,0.137,551
2020-10-05T07:00:41,42.805,6.029,CST-1368DR,5925,8293,15091,0.137,551
2020-10-05T07:03:42,42.805,6.029,CST-1368DR,5925,8293,15090,0.137,551
2020-10-05T07:06:44,42.805,6.029,CST-1368DR,5925,8292,15089,0.137,551
2020-10-05T07:09:45,42.805,6.029,CST-1368DR,5925,8293,15090,0.137,551
2020-10-05T07:12:47,42.805,6.029,CST-1368DR,5924,8292,15092,0.137,551
2020-10-05T07:15:49,42.805,6.029,CST-1368DR,5924,8293,15093,0.136,551
2020-10-05T07:18:50,42.805,6.029,CST-1368DR,5925,8293,15090,0.137,551
2020-10-05T07:21:52,42.805,6.029,CST-1368DR,5924,8293,15094,0.136,551
2020-10-05T07:24:53,42.805,6.029,CST-1368DR,5925,8293,15091,0.137,551
2020-10-05T07:27:55,42.805,6.029,CST-1368DR,5924,8293,15093,0.136,551
2020-10-05T07:30:57,42.805,6.029,CST-1368DR,5924,8292,15092,0.137,551
2020-10-05T07:33:58,42.805,6.029,CST-1368DR,5924,8292,15091,0.137,551
2020-10-05T07:37:00,42.805,6.029,CST-1368DR,5924,8293,15093,0.136,551
2020-10-05T07:40:01,42.805,6.029,CST-1368DR,5924,8290,15087,0.138,551
2020-10-05T07:43:03,42.805,6.029,CST-1368DR,5924,8293,15092,0.137,551
2020-10-05T07:46:04,42.805,6.029,CST-1368DR,5924,8293,15092,0.137,551
2020-10-05T07:49:06,42.805,6.029,CST-1368DR,5924,8290,15087,0.138,551
2020-10-05T07:52:08,42.805,6.029,CST-1368DR,5924,8292,15090,0.137,551
2020-10-05T07:55:09,42.805,6.029,CST-1368DR,5924,8291,15089,0.137,551
2020-10-05T07:58:11,42.805,6.029,CST-1368DR,5924,8291,15089,0.137,551
2020-10-05T08:01:12,42.805,6.029,CST-1368DR,5924,8292,15091,0.137,551
2020-10-05T08:04:14,42.805,6.029,CST-1368DR,5924,8288,15084,0.139,551
2020-10-05T08:07:15,42.805,6.029,CST-1368DR,5924,8290,15088,0.138,551
2020-10-05T08:10:17,42.805,6.029,CST-1368DR,5924,8291,15090,0.137,550
2020-10-05T08:13:19,42.805,6.029,CST-1368DR,5924,8292,15092,0.137,551
2020-10-05T08:16:20,42.805,6.029,CST-1368DR,5924,8291,15090,0.137,551
2020-10-05T08:19:22,42.805,6.029,CST-1368DR,5924,8290,15088,0.138,551
2020-10-05T08:22:23,42.805,6.029,CST-1368DR,5924,8290,15088,0.138,551
2020-10-05T08:25:25,42.805,6.029,CST-1368DR,5924,8291,15089,0.137,551
2020-10-05T08:28:27,42.805,6.029,CST-1368DR,5924,8290,15087,0.138,551
2020-10-05T08:31:28,42.805,6.029,CST-1368DR,5924,8292,15091,0.137,551
2020-10-05T08:34:30,42.805,6.029,CST-1368DR,5924,8289,15086,0.138,551
2020-10-05T08:37:31,42.805,6.029,CST-1368DR,5924,8293,15092,0.137,551
2020-10-05T08:40:33,42.805,6.029,CST-1368DR,5924,8292,15090,0.137,551
2020-10-05T08:43:34,42.805,6.029,CST-1368DR,5924,8293,15092,0.137,551
2020-10-05T08:46:36,42.805,6.029,CST-1368DR,5924,8292,15091,0.137,551
2020-10-05T08:49:38,42.805,6.029,CST-1368DR,5924,8292,15092,0.137,551
2020-10-05T08:52:39,42.805,6.029,CST-1368DR,5924,8293,15092,0.137,551
2020-10-05T08:55:41,42.805,6.029,CST-1368DR,5924,8292,15091,0.137,551
2020-10-05T08:58:42,42.805,6.029,CST-1368DR,5924,8292,15092,0.137,551
2020-10-05T09:01:44,42.805,6.029,CST-1368DR,5924,8292,15092,0.137,551
2020-10-05T09:04:45,42.805,6.029,CST-1368DR,5924,8293,15092,0.137,551
2020-10-05T09:07:47,42.805,6.029,CST-1368DR,5924,8291,15089,0.137,551
2020-10-05T09:10:49,42.805,6.029,CST-1368DR,5924,8291,15089,0.137,551
2020-10-05T09:13:50,42.805,6.029,CST-1368DR,5924,8286,15081,0.139,551
2020-10-05T09:16:52,42.805,6.029,CST-1368DR,5924,8288,15084,0.139,551
2020-10-05T09:19:53,42.805,6.029,CST-1368DR,5924,8292,15091,0.137,551
2020-10-05T09:22:55,42.805,6.029,CST-1368DR,5924,8291,15089,0.137,551
2020-10-05T09:25:57,42.805,6.029,CST-1368DR,5924,8292,15090,0.137,551
2020-10-05T09:28:58,42.805,6.029,CST-1368DR,5924,8292,15090,0.137,551
2020-10-05T09:32:00,42.805,6.029,CST-1368DR,5924,8292,15090,0.137,551
2020-10-05T09:35:01,42.805,6.029,CST-1368DR,5924,8291,15089,0.137,551
2020-10-05T09:38:03,42.805,6.029,CST-1368DR,5924,8292,15091,0.137,551
2020-10-05T09:41:04,42.805,6.029,CST-1368DR,5924,8292,15090,0.137,551
2020-10-05T09:44:06,42.805,6.029,CST-1368DR,5924,8292,15091,0.137,551
2020-10-05T09:47:08,42.805,6.029,CST-1368DR,5924,8292,15092,0.137,551
2020-10-05T09:50:09,42.805,6.029,CST-1368DR,5924,8292,15092,0.137,551
2020-10-05T09:53:11,42.805,6.029,CST-1368DR,5924,8291,15089,0.137,551
2020-10-05T09:56:12,42.805,6.029,CST-1368DR,5924,8292,15091,0.137,551
2020-10-05T09:59:14,42.805,6.029,CST-1368DR,5924,8292,15091,0.137,551
2020-10-05T10:02:16,42.805,6.029,CST-1368DR,5924,8292,15090,0.137,551
2020-10-05T10:05:17,42.805,6.029,CST-1368DR,5924,8292,15091,0.137,551
2020-10-05T10:08:19,42.805,6.029,CST-1368DR,5924,8292,15092,0.137,551
2020-10-05T10:11:20,42.805,6.029,CST-1368DR,5924,8292,15090,0.137,551
2020-10-05T10:14:22,42.805,6.029,CST-1368DR,5924,8291,15089,0.137,551
2020-10-05T10:17:23,42.805,6.029,CST-1368DR,5924,8291,15089,0.137,551
2020-10-05T10:20:25,42.805,6.029,CST-1368DR,5924,8292,15090,0.137,551
2020-10-05T10:23:27,42.805,6.029,CST-1368DR,5924,8291,15090,0.137,551
2020-10-05T10:26:28,42.805,6.029,CST-1368DR,5924,8291,15090,0.137,551
2020-10-05T10:29:30,42.805,6.029,CST-1368DR,5924,8290,15088,0.138,551
2020-10-05T10:32:31,42.805,6.029,CST-1368DR,5924,8292,15090,0.137,551
2020-10-05T10:35:33,42.805,6.029,CST-1368DR,5924,8291,15090,0.137,551
2020-10-05T10:38:34,42.805,6.029,CST-1368DR,5924,8292,15091,0.137,551
2020-10-05T10:41:36,42.805,6.029,CST-1368DR,5924,8292,15090,0.137,551
2020-10-05T10:44:38,42.805,6.029,CST-1368DR,5924,8292,15091,0.137,551
2020-10-05T10:47:39,42.805,6.029,CST-1368DR,5924,8292,15090,0.137,551
2020-10-05T10:50:41,42.805,6.029,CST-1368DR,5924,8292,15090,0.137,551
2020-10-05T10:53:42,42.805,6.029,CST-1368DR,5924,8291,15089,0.137,551
2020-10-05T10:56:44,42.805,6.029,CST-1368DR,5924,8292,15090,0.137,551
2020-10-05T10:59:46,42.805,6.029,CST-1368DR,5924,8291,15089,0.137,551
2020-10-05T11:02:47,42.805,6.029,CST-1368DR,5924,8292,15090,0.137,551
2020-10-05T11:05:49,42.805,6.029,CST-1368DR,5924,8291,15089,0.137,551
2020-10-05T11:08:50,42.805,6.029,CST-1368DR,5924,8291,15090,0.137,551
2020-10-05T11:11:52,42.805,6.029,CST-1368DR,5924,8291,15090,0.137,551
2020-10-05T11:14:53,42.805,6.029,CST-1368DR,5924,8292,15090,0.137,551
2020-10-05T11:17:55,42.805,6.029,CST-1368DR,5924,8292,15090,0.137,551
2020-10-05T11:20:57,42.805,6.029,CST-1368DR,5924,8292,15090,0.137,551
2020-10-05T11:23:58,42.805,6.029,CST-1368DR,5924,8290,15088,0.138,551
2020-10-05T11:27:00,42.805,6.029,CST-1368DR,5924,8291,15089,0.137,551
2020-10-05T11:30:01,42.805,6.029,CST-1368DR,5924,8291,15089,0.137,551
2020-10-05T11:33:03,42.805,6.029,CST-1368DR,5924,8292,15090,0.137,551
2020-10-05T11:36:05,42.805,6.029,CST-1368DR,5923,8292,15093,0.136,551
2020-10-05T11:39:06,42.805,6.029,CST-1368DR,5923,8291,15092,0.137,551
2020-10-05T11:42:08,42.805,6.029,CST-1368DR,5923,8291,15092,0.137,551
2020-10-05T11:45:09,42.805,6.029,CST-1368DR,5923,8291,15092,0.137,551
2020-10-05T11:48:11,42.805,6.029,CST-1368DR,5923,8290,15090,0.137,551
2020-10-05T11:51:12,42.805,6.029,CST-1368DR,5923,8291,15091,0.137,551
2020-10-05T11:54:14,42.805,6.029,CST-1368DR,5923,8292,15093,0.136,551
2020-10-05T11:57:16,42.805,6.029,CST-1368DR,5923,8291,15091,0.137,551
2020-10-05T12:00:17,42.805,6.029,CST-1368DR,5923,8291,15091,0.137,551
2020-10-05T12:03:19,42.805,6.029,CST-1368DR,5923,8291,15091,0.137,551
2020-10-05T12:06:20,42.805,6.029,CST-1368DR,5923,8292,15093,0.136,551
2020-10-05T12:09:22,42.805,6.029,CST-1368DR,5923,8291,15091,0.137,551
2020-10-05T12:12:23,42.805,6.029,CST-1368DR,5923,8291,15091,0.137,551
2020-10-05T12:15:25,42.805,6.029,CST-1368DR,5923,8288,15086,0.138,551
2020-10-05T12:18:27,42.805,6.029,CST-1368DR,5923,8290,15090,0.137,551
2020-10-05T12:21:28,42.805,6.029,CST-1368DR,5923,8291,15091,0.137,551
2020-10-05T12:24:30,42.805,6.029,CST-1368DR,5923,8291,15091,0.137,551
2020-10-05T12:27:31,42.805,6.029,CST-1368DR,5923,8291,15092,0.137,551
2020-10-05T12:30:33,42.805,6.029,CST-1368DR,5923,8291,15092,0.137,551
2020-10-05T12:33:35,42.805,6.029,CST-1368DR,5923,8290,15090,0.137,551
2020-10-05T12:36:36,42.805,6.029,CST-1368DR,5923,8291,15091,0.137,551
2020-10-05T12:39:38,42.805,6.029,CST-1368DR,5923,8289,15088,0.138,551
2020-10-05T12:42:39,42.805,6.029,CST-1368DR,5923,8290,15090,0.137,551
2020-10-05T12:45:41,42.805,6.029,CST-1368DR,5923,8290,15090,0.137,551
2020-10-05T12:48:42,42.805,6.029,CST-1368DR,5923,8291,15091,0.137,551
2020-10-05T12:51:44,42.805,6.029,CST-1368DR,5923,8291,15091,0.137,551
2020-10-05T12:54:46,42.805,6.029,CST-1368DR,5923,8291,15091,0.137,551
2020-10-05T12:57:47,42.805,6.029,CST-1368DR,5923,8290,15090,0.137,550
2020-10-05T13:00:49,42.805,6.029,CST-1368DR,5923,8291,15091,0.137,551
2020-10-05T13:03:50,42.805,6.029,CST-1368DR,5923,8291,15092,0.137,551
2020-10-05T13:06:52,42.805,6.029,CST-1368DR,5923,8291,15091,0.137,551
2020-10-05T13:09:54,42.805,6.029,CST-1368DR,5923,8278,15068,0.143,551
2020-10-05T13:12:55,42.805,6.029,CST-1368DR,5923,8291,15092,0.137,551
2020-10-05T13:15:57,42.805,6.029,CST-1368DR,5923,8289,15088,0.138,551
2020-10-05T13:18:58,42.805,6.029,CST-1368DR,5923,8291,15091,0.137,551
2020-10-05T13:22:00,42.805,6.029,CST-1368DR,5923,8291,15091,0.137,551
2020-10-05T13:25:01,42.805,6.029,CST-1368DR,5923,8291,15091,0.137,551
2020-10-05T13:28:03,42.805,6.029,CST-1368DR,5923,8291,15091,0.137,551
2020-10-05T13:31:05,42.805,6.029,CST-1368DR,5923,8291,15091,0.137,551
2020-10-05T13:34:06,42.805,6.029,CST-1368DR,5923,8290,15090,0.137,551
2020-10-05T13:37:08,42.805,6.029,CST-1368DR,5923,8291,15091,0.137,551
2020-10-05T13:40:09,42.805,6.029,CST-1368DR,5923,8291,15092,0.137,551
2020-10-05T13:43:11,42.805,6.029,CST-1368DR,5923,8288,15086,0.138,551
2020-10-05T13:46:12,42.805,6.029,CST-1368DR,5923,8291,15091,0.137,551
2020-10-05T13:49:14,42.805,6.029,CST-1368DR,5923,8291,15092,0.137,551
2020-10-05T13:52:16,42.805,6.029,CST-1368DR,5923,8289,15089,0.137,551
2020-10-05T13:55:17,42.805,6.029,CST-1368DR,5923,8290,15090,0.137,551
2020-10-05T13:58:19,42.805,6.029,CST-1368DR,5923,8288,15086,0.138,551
2020-10-05T14:01:20,42.805,6.029,CST-1368DR,5923,8289,15087,0.138,551
2020-10-05T14:04:22,42.805,6.029,CST-1368DR,5923,8290,15090,0.137,551
2020-10-05T14:07:24,42.805,6.029,CST-1368DR,5923,8290,15090,0.137,551
2020-10-05T14:10:25,42.805,6.029,CST-1368DR,5923,8291,15091,0.137,551
2020-10-05T14:13:27,42.805,6.029,CST-1368DR,5923,8290,15090,0.137,551
2020-10-05T14:16:28,42.805,6.029,CST-1368DR,5923,8290,15090,0.137,551
2020-10-05T14:19:30,42.805,6.029,CST-1368DR,5923,8290,15090,0.137,551
2020-10-05T14:22:31,42.805,6.029,CST-1368DR,5923,8289,15088,0.138,551
2020-10-05T14:25:33,42.805,6.029,CST-1368DR,5923,8290,15090,0.137,551
2020-10-05T14:28:35,42.805,6.029,CST-1368DR,5923,8291,15091,0.137,551
2020-10-05T14:31:36,42.805,6.029,CST-1368DR,5923,8290,15090,0.137,551
2020-10-05T14:34:38,42.805,6.029,CST-1368DR,5923,8290,15090,0.137,551
2020-10-05T14:37:39,42.805,6.029,CST-1368DR,5923,8290,15090,0.137,551
2020-10-05T14:40:41,42.805,6.029,CST-1368DR,5923,8290,15090,0.137,551
2020-10-05T14:43:43,42.805,6.029,CST-1368DR,5923,8291,15091,0.137,551
2020-10-05T14:46:44,42.805,6.029,CST-1368DR,5923,8291,15091,0.137,551
2020-10-05T14:49:46,42.805,6.029,CST-1368DR,5923,8289,15089,0.137,551
2020-10-05T14:52:47,42.805,6.029,CST-1368DR,5923,8290,15090,0.137,551
2020-10-05T14:55:49,42.805,6.029,CST-1368DR,5923,8289,15089,0.137,551
2020-10-05T14:58:50,42.805,6.029,CST-1368DR,5923,8291,15091,0.137,551
2020-10-05T15:01:52,42.805,6.029,CST-1368DR,5923,8291,15091,0.137,551
2020-10-05T15:04:54,42.805,6.029,CST-1368DR,5923,8291,15091,0.137,551
2020-10-05T15:07:55,42.805,6.029,CST-1368DR,5923,8289,15087,0.138,551
2020-10-05T15:10:57,42.805,6.029,CST-1368DR,5923,8289,15089,0.137,551
2020-10-05T15:13:58,42.805,6.029,CST-1368DR,5923,8289,15089,0.137,551
2020-10-05T15:17:00,42.805,6.029,CST-1368DR,5923,8289,15089,0.137,551
2020-10-05T15:20:01,42.805,6.029,CST-1368DR,5923,8290,15090,0.137,551
2020-10-05T15:23:03,42.805,6.029,CST-1368DR,5923,8289,15089,0.137,551
2020-10-05T15:26:05,42.805,6.029,CST-1368DR,5923,8290,15090,0.137,550
2020-10-05T15:29:06,42.805,6.029,CST-1368DR,5923,8291,15091,0.137,551
2020-10-05T15:32:08,42.805,6.029,CST-1368DR,5923,8289,15088,0.138,551
2020-10-05T15:35:09,42.805,6.029,CST-1368DR,5923,8290,15090,0.137,551
2020-10-05T15:38:11,42.805,6.029,CST-1368DR,5923,8288,15085,0.138,551
2020-10-05T15:41:13,42.805,6.029,CST-1368DR,5923,8289,15087,0.138,551
2020-10-05T15:44:14,42.805,6.029,CST-1368DR,5923,8289,15088,0.138,551
2020-10-05T15:47:16,42.805,6.029,CST-1368DR,5923,8290,15090,0.137,551
2020-10-05T15:50:17,42.805,6.029,CST-1368DR,5923,8286,15083,0.139,551
2020-10-05T15:53:19,42.805,6.029,CST-1368DR,5923,8290,15090,0.137,551
2020-10-05T15:56:20,42.805,6.029,CST-1368DR,5923,8290,15090,0.137,551
2020-10-05T15:59:22,42.805,6.029,CST-1368DR,5923,8290,15089,0.137,551
2020-10-05T16:02:24,42.805,6.029,CST-1368DR,5923,8289,15088,0.138,551
2020-10-05T16:05:25,42.805,6.029,CST-1368DR,5922,8285,15084,0.139,551
2020-10-05T16:08:27,42.805,6.029,CST-1368DR,5923,8290,15089,0.137,551
2020-10-05T16:11:28,42.805,6.029,CST-1368DR,5923,8290,15090,0.137,551
2020-10-05T16:14:30,42.805,6.029,CST-1368DR,5922,8290,15092,0.137,551
2020-10-05T16:17:31,42.805,6.029,CST-1368DR,5923,8289,15089,0.137,551
2020-10-05T16:20:33,42.805,6.029,CST-1368DR,5922,8289,15090,0.137,551
2020-10-05T16:23:35,42.805,6.029,CST-1368DR,5922,8290,15092,0.137,551
2020-10-05T16:26:36,42.805,6.029,CST-1368DR,5923,8289,15088,0.138,551
2020-10-05T16:29:38,42.805,6.029,CST-1368DR,5922,8289,15091,0.137,551
2020-10-05T16:32:39,42.805,6.029,CST-1368DR,5922,8290,15092,0.137,551
2020-10-05T16:35:41,42.805,6.029,CST-1368DR,5922,8289,15090,0.137,551
2020-10-05T16:38:43,42.805,6.029,CST-1368DR,5923,8290,15090,0.137,551
2020-10-05T16:41:44,42.805,6.029,CST-1368DR,5923,8289,15089,0.137,551
2020-10-05T16:44:46,42.805,6.029,CST-1368DR,5922,8289,15091,0.137,551
2020-10-05T16:47:47,42.805,6.029,CST-1368DR,5922,8289,15091,0.137,551
2020-10-05T16:50:49,42.805,6.029,CST-1368DR,5922,8289,15091,0.137,551